Stations météo

réclame
Mon MeteoGroup
Tyndrum, Grande-Bretagne (99020): Température de l'air & dewpoint: 15.02.2019 14:00:00 - 21.02.2019 14:00:00 (GMT)Tyndrum, Grande-Bretagne (99020): Quantités de précipitations: 15.02.2019 14:00:00 - 21.02.2019 14:00:00 (GMT)
Date & Time tt [°C] td [°C] rr [mm]
21.02.2019 14:00:00 11,0 9,2 -
21.02.2019 13:00:00 11,3 9,6 0,0
21.02.2019 12:00:00 10,7 9,7 0,0
21.02.2019 11:00:00 10,6 9,7 0,2
21.02.2019 10:00:00 10,4 9,6 0,6
21.02.2019 09:00:00 10,3 9,5 0,6
21.02.2019 08:00:00 10,1 9,3 0,0
21.02.2019 07:00:00 10,1 9,2 0,0
21.02.2019 06:00:00 9,5 8,7 0,0
21.02.2019 05:00:00 9,8 8,6 0,0
21.02.2019 04:00:00 9,2 8,4 0,0
21.02.2019 03:00:00 9,2 8,3 0,0
21.02.2019 02:00:00 8,7 7,7 0,0
21.02.2019 01:00:00 9,3 8,4 0,0
21.02.2019 00:00:00 9,8 7,6 0,0
20.02.2019 23:00:00 9,6 6,5 0,0
20.02.2019 22:00:00 10,0 7,6 0,0
20.02.2019 21:00:00 8,0 7,7 0,0
20.02.2019 20:00:00 8,1 7,8 0,2
20.02.2019 19:00:00 8,5 8,1 1,4
20.02.2019 18:00:00 8,8 8,0 2,6
20.02.2019 17:00:00 9,1 8,1 2,0
20.02.2019 16:00:00 9,4 8,4 2,4
20.02.2019 15:00:00 - - -
20.02.2019 14:00:00 - - -
20.02.2019 13:00:00 - - -
20.02.2019 12:00:00 9,4 8,3 1,2
20.02.2019 11:00:00 9,4 8,2 0,6
20.02.2019 10:00:00 8,9 7,8 0,6
20.02.2019 09:00:00 8,6 7,7 0,4
20.02.2019 08:00:00 8,8 7,8 0,8
20.02.2019 07:00:00 8,6 8,0 0,2
20.02.2019 06:00:00 8,4 7,7 0,0
20.02.2019 05:00:00 8,5 7,7 0,4
20.02.2019 04:00:00 8,3 7,4 1,6
20.02.2019 03:00:00 7,8 7,1 1,4
20.02.2019 02:00:00 7,1 6,4 1,8
20.02.2019 01:00:00 6,9 6,0 1,4
20.02.2019 00:00:00 6,8 5,8 1,8
19.02.2019 23:00:00 6,2 5,4 0,8
19.02.2019 22:00:00 5,6 5,2 0,8
19.02.2019 21:00:00 5,3 4,6 1,4
19.02.2019 20:00:00 5,5 4,2 1,2
19.02.2019 19:00:00 5,0 4,2 0,6
19.02.2019 18:00:00 5,3 3,7 0,2
19.02.2019 17:00:00 5,6 3,4 0,4
19.02.2019 16:00:00 5,7 3,9 0,2
19.02.2019 15:00:00 6,2 3,9 0,0
19.02.2019 14:00:00 6,3 3,4 0,0
19.02.2019 13:00:00 6,2 4,6 0,0
19.02.2019 12:00:00 5,9 4,5 0,0
19.02.2019 11:00:00 6,2 5,1 0,4
19.02.2019 10:00:00 5,2 5,0 0,2
19.02.2019 09:00:00 4,6 4,3 0,4
19.02.2019 08:00:00 4,1 3,8 0,6
19.02.2019 07:00:00 3,7 3,3 0,2
19.02.2019 06:00:00 3,7 3,2 0,0
19.02.2019 05:00:00 3,9 3,2 0,0
19.02.2019 04:00:00 4,7 3,2 0,2
19.02.2019 03:00:00 5,1 3,2 0,2
19.02.2019 02:00:00 5,2 3,3 0,0
19.02.2019 01:00:00 5,3 3,2 0,0
19.02.2019 00:00:00 4,8 2,4 0,0
18.02.2019 23:00:00 5,7 3,2 0,0
18.02.2019 22:00:00 5,6 3,8 0,0
18.02.2019 21:00:00 5,7 3,9 0,2
18.02.2019 20:00:00 5,2 3,7 0,2
18.02.2019 19:00:00 6,1 4,9 1,2
18.02.2019 18:00:00 6,0 4,1 0,6
18.02.2019 17:00:00 6,4 4,7 0,4
18.02.2019 16:00:00 6,7 4,7 0,8
18.02.2019 15:00:00 6,6 4,8 2,2
18.02.2019 14:00:00 6,5 4,6 1,2
18.02.2019 13:00:00 5,3 3,8 4,4
18.02.2019 12:00:00 5,5 3,9 2,0
18.02.2019 11:00:00 5,6 4,0 0,6
18.02.2019 10:00:00 5,3 3,7 0,8
18.02.2019 09:00:00 5,5 3,2 0,2
18.02.2019 08:00:00 5,7 2,5 0,0
18.02.2019 07:00:00 5,7 2,5 0,0
18.02.2019 06:00:00 6,0 3,2 0,0
18.02.2019 05:00:00 6,1 3,2 0,2
18.02.2019 04:00:00 6,4 4,1 0,8
18.02.2019 03:00:00 6,2 4,5 2,4
18.02.2019 02:00:00 6,8 4,2 1,0
18.02.2019 01:00:00 6,6 4,8 1,6
18.02.2019 00:00:00 7,3 4,8 0,0
17.02.2019 23:00:00 7,3 5,2 1,2
17.02.2019 22:00:00 7,4 5,5 0,4
17.02.2019 21:00:00 6,9 5,1 3,0
17.02.2019 20:00:00 7,2 4,7 0,4
17.02.2019 19:00:00 7,7 4,4 0,4
17.02.2019 18:00:00 7,9 4,5 0,0
17.02.2019 17:00:00 8,1 4,5 0,0
17.02.2019 16:00:00 8,4 4,0 0,0
17.02.2019 15:00:00 8,7 5,0 0,0
17.02.2019 14:00:00 8,2 6,0 0,4
17.02.2019 13:00:00 8,8 6,7 1,4
17.02.2019 12:00:00 8,6 6,9 2,2
17.02.2019 11:00:00 - - -
17.02.2019 10:00:00 8,4 6,5 0,8
17.02.2019 09:00:00 8,7 6,5 0,4
17.02.2019 08:00:00 9,5 6,2 0,0
17.02.2019 07:00:00 9,4 6,6 0,0
17.02.2019 06:00:00 9,6 6,9 0,0
17.02.2019 05:00:00 9,7 6,7 0,0
17.02.2019 04:00:00 9,5 7,1 0,0
17.02.2019 03:00:00 9,3 7,5 0,0
17.02.2019 02:00:00 9,4 7,9 0,0
17.02.2019 01:00:00 9,5 8,2 0,4
17.02.2019 00:00:00 8,7 7,3 0,2
16.02.2019 23:00:00 8,9 6,8 0,2
16.02.2019 22:00:00 8,1 5,9 0,0
16.02.2019 21:00:00 8,4 5,3 0,0
16.02.2019 20:00:00 8,3 5,4 0,0
16.02.2019 19:00:00 7,8 5,4 0,0
16.02.2019 18:00:00 8,0 5,4 0,0
16.02.2019 17:00:00 8,0 5,2 0,0
16.02.2019 16:00:00 7,8 4,9 0,0
16.02.2019 15:00:00 8,0 5,0 0,0
16.02.2019 14:00:00 8,0 5,5 0,0
16.02.2019 13:00:00 7,9 6,1 0,2
16.02.2019 12:00:00 8,0 6,1 0,2
16.02.2019 11:00:00 8,1 5,2 0,0
16.02.2019 10:00:00 7,7 5,8 0,4
16.02.2019 09:00:00 7,5 6,7 0,6
16.02.2019 08:00:00 7,3 6,5 0,4
16.02.2019 07:00:00 7,3 6,5 0,4
16.02.2019 06:00:00 7,9 6,5 0,6
16.02.2019 05:00:00 8,0 6,6 0,4
16.02.2019 04:00:00 8,5 6,6 0,0
16.02.2019 03:00:00 8,9 6,4 0,0
16.02.2019 02:00:00 9,2 6,5 0,6
16.02.2019 01:00:00 8,7 7,0 5,0
16.02.2019 00:00:00 9,0 7,6 0,0
15.02.2019 23:00:00 8,8 7,8 1,6
15.02.2019 22:00:00 8,1 7,1 4,6
15.02.2019 21:00:00 7,6 6,5 1,8
15.02.2019 20:00:00 8,2 6,0 0,0
15.02.2019 19:00:00 8,4 6,3 0,0
15.02.2019 18:00:00 8,4 6,0 0,0
15.02.2019 17:00:00 8,5 5,7 0,0
15.02.2019 16:00:00 8,6 5,3 0,0
15.02.2019 15:00:00 9,1 5,3 0,0
15.02.2019 14:00:00 8,5 4,7 0,0

tt = Température de l'air
td = dewpoint
rr = Quantités de précipitations

stations d'obs. à proximité